User: anonymous   Login
Location: Unspecified
(0.0000°N, 0.0000°E)
Time: 05:36:29
(UTC+00:00)
Language:

E-STAR-II - Orbit

View from above orbital plane
View from above orbital plane
View from above satellite
View from above satellite

Ground track
Ground track

The orbit data is extracted from the following two-line orbital elements,

1 41459U 16025D   19083.85538437 -.00000119  00000-0 -11972-5 0  9999
2 41459  98.1027 166.0641 0166847 286.9844  71.3143 15.05160007159637
Epoch (UTC): 24 March 2019 20:31:45
Eccentricity: 0.0166847
inclination: 98.1027°
perigee height: 435 km
apogee height: 666 km
right ascension of ascending node: 166.0641°
argument of perigee: 286.9844°
revolutions per day: 15.05160007
mean anomaly at epoch: 71.3143°
orbit number at epoch: 15963

The dashed part of the orbit path shows where the satellite is in the earth's shadow,  

DLR